Current Version              Previous Version:    01  02  03  04  05  06  07  08  09  10  11  12  13  14  15  16  17  18  19  20  21  22  23  24  25  26  27  28  29  30  
   31  32  33  34  35  36  37  38  39  40  41  42  43  44  45  46  47  48  49  50  51  52  53  54  55  56  57  58  59  60  

[Printable]
557
ASUS44 KLUB 021701
RWRTX
WEST TEXAS WEATHER ROUNDUP
NATIONAL WEATHER SERVICE LUBBOCK TX
1200 PM CDT TUE SEP 02 2014

NOTE: "FAIR" INDICATES FEW OR NO CLOUDS BELOW 12,000 FEET WITH NO
SIGNIFICANT WEATHER AND/OR OBSTRUCTIONS TO VISIBILITY.

TXZ004-006>008-010-012-014-016-OKZ002-021800-
TEXAS PANHANDLE/OKLAHOMA PANHANDLE

CITY           SKY/WX    TMP DP  RH WIND       PRES   REMARKS
AMARILLO       SUNNY     82  64  54 VRB3      30.04S
BORGER         SUNNY     83  64  52 NE9       30.01S
CANADIAN       SUNNY     84  69  60 E7        29.97S
DALHART        CLOUDY    73  65  75 NE12      30.11R
DUMAS          PTSUNNY   73  65  75 NE10      30.07S
GUYMON         MOSUNNY   79  63  57 VRB3      30.04S
PAMPA          SUNNY     82  61  49 E7        30.03R
PERRYTON       CLOUDY    78  66  65 NE9       30.03S
$$

TXZ026-029-035-045-048-021800-
SOUTHERN PANHANDLE/SOUTH PLAINS/ROLLING PLAINS

CITY           SKY/WX    TMP DP  RH WIND       PRES   REMARKS
CHILDRESS      SUNNY     91  65  41 E5        29.95S
SEMINOLE       SUNNY     90  59  35 S6        30.00S
LUBBOCK        MOSUNNY   89  61  38 SW12G17   30.00R
PLAINVIEW      SUNNY     84  61  44 SW7       30.00S
SNYDER         SUNNY     88  68  51 S15       29.97R
$$

TXZ052-054-060>062-072-078-127-140-154-169-021800-
PERMIAN BASIN/CONCHO VALLEY/BIG COUNTRY/EDWARDS PLATEAU

CITY           SKY/WX    TMP DP  RH WIND       PRES   REMARKS
ABILENE        SUNNY     90  68  48 S17G24    29.96S
BIG SPRING     SUNNY     91  65  42 S15       29.98F
BRADY          SUNNY     88  68  51 SE10      29.99R
BROWNWOOD      SUNNY     90  68  48 S10       29.98F
JUNCTION       PTSUNNY   86  67  52 S13G20    29.99S
MIDLAND        SUNNY     89  66  46 S12       29.96F
ODESSA         SUNNY     89  63  41 S12       29.98S
SAN ANGELO     SUNNY     89  68  49 S16       29.97S
SONORA         MOSUNNY   84  68  58 S12G18    30.04S
SWEETWATER     SUNNY     88  66  48 S16       29.99S
WINK           SUNNY     94  56  27 VRB3      29.93F
$$

TXZ055-058-074-075-080-082-021800-
FAR WEST/SOUTHWEST MOUNTAINS/TRANS PECOS

CITY           SKY/WX    TMP DP  RH WIND       PRES   REMARKS
ALPINE         SUNNY     90  55  30 SW3       30.13S
DRYDEN           N/A     93  67  42 SE9G17    29.94F HX  96
EL PASO        SUNNY     90  44  20 VRB3      30.02S
FORT STOCKTON  SUNNY     94  57  28 VRB5      29.96F
GUADALUPE PASS SUNNY     85  42  22 SW13      30.16S
MARFA          SUNNY     88  57  35 SW3       30.14S
$$

TXZ014-016-019-021>030-083-021800
TEXAS TECH WEST TEXAS MESONET/TEXAS PANHANDLE/NORTHERN SOUTH PLAINS

CITY           SKY/WX    TMP DP  RH WIND       PRES   REMARKS
ABERNATHY 5ENE   N/A     89  58  34 W8        30.01S
AMARILLO 9NNE    N/A     79  66  63 NW3       30.03S
AMARILLO 7SSE    N/A     80  64  58 NW7       30.05S
AMHERST 1NE      N/A     87  59  38 W6        30.02S
BOOTLEG 11WNW    N/A     75  62  64 N15       30.12R
CANADIAN 6E      N/A     84  68  58 E8        29.96F
CAPROCK CYN SP   N/A     89  59  36 SW9       29.98F
CHILDRESS 2NNE   N/A     91  62  38 W2        29.94S
CLARENDON 2WSW   N/A     86  61  42 SW6       29.99S
CLAUDE 12SW      N/A     80  64  59 S2        30.03S
DIMMITT 2NE      N/A     80  61  50 N10       30.05S
FLOYDADA 2NNE    N/A     84  60  43 SW2       30.02S
FRIONA 2NE       N/A     81  62  51 N10       30.07S
GOODLETT 3W      N/A     92  61  35 S5        29.93S
HART 3N          N/A     82  61  47 W6        30.03F
HEREFORD 2NW     N/A     80  63  55 N8        30.05F
MCLEAN 1E        N/A     86  62  45 SE6       29.98S
MEMPHIS 1NE      N/A     88  63  42 W2        29.95S
MULESHOE 2SSW    N/A     83  58  42 N6        30.04F
OLTON 6S         N/A     86  59  39 SW7       30.01S
PALO DURO SP     N/A     82  63  52 NE3       30.04F
PAMPA 2E         N/A     81  65  58 E5        30.02R
PLAINVIEW 1S     N/A     85  61  44 W6        30.01R
SILVERTON 7ESE   N/A     87  60  39 SW5       30.01S
TULIA 2ENE       N/A     84  59  41 NW5       30.02S
TURKEY 2WSW      N/A     89  61  39 S6        29.97S
UMBARGER 3NNE    N/A     80  65  59 N10       30.06S
$$

TXZ033>036-039>041-045>048-021800
TEXAS TECH WEST TEXAS MESONET/SOUTH PLAINS

CITY           SKY/WX    TMP DP  RH WIND       PRES   REMARKS
AIKEN 3WSW       N/A     85  63  46 SW8       30.02S
ANDREWS 2NE      N/A     90  60  36 S12       29.98F
ANTON 6SSW       N/A     88  60  39 SW8       30.00F
BROWNFIELD 2S    N/A     87  60  39 S9        30.00S
DENVR CTY 7WNW   N/A     85  57  38 SW5       30.01S
GAIL 2ESE        N/A     89  65  44 S10       29.95S
LAMESA 2SE       N/A     89  65  45 S10       29.99S
LEVELLAND 4S     N/A     88  58  36 SW7       30.01S
LUBBOCK 3WNW     N/A     88  60  39 SW8       30.00S
MORTON 1ENE      N/A     86  58  38 W7        30.02F
ODONNELL 1N      N/A     87  63  44 S14       29.99S
PLAINS 3N        N/A     87  58  36 SW7       30.02S
RALLS 1SE        N/A     87  65  47 SW9       30.00S
REESE CENTER     N/A     87  58  38 SW8       30.01R
SEAGRAVES 1SW    N/A     89  61  39 S3        30.00S
SEMINOLE 2NNE    N/A     89  59  36 S8        29.99S
SLATON 2NE       N/A     86  64  47 SW9       29.99S
SNYDER 3E        N/A     88  67  48 S15       29.96R
SUNDOWN 8SW      N/A     89  58  34 SW8       30.01S
TAHOKA 3NNE      N/A     90  64  42 S12       29.98S
WOLFFORTH 6SSW   N/A     87  60  39 SW9       30.01R
$$

TXZ031-032-036>038-042>044-021800-
TEXAS TECH WEST TEXAS MESONET/ROLLING PLAINS

CITY           SKY/WX    TMP DP  RH WIND       PRES   REMARKS
ASPERMONT 3NE    N/A     92  68  45 S9        29.92S HX  95
FLUVANNA 3WNW    N/A     87  63  44 S14       29.97R
GRAHAM 5SSW      N/A     87  64  44 S12       29.97S
GUTHRIE 10WSW    N/A     91  66  44 S5        29.94R
HASKELL 1NW      N/A     91  65  42 S12       29.93R
JAYTON 1SSE      N/A     89  67  47 S8        29.93S
KNOX CITY 3NW    N/A     91  65  42 E5        29.95R
LK A HENRY 1NW   N/A     92  66  42 S7        29.94R
NORTHFIELD 1S    N/A     92  62  37 SW2       29.94S
ODELL 4ENE       N/A     91  68  46 S10       29.95R HX  95
PADUCAH 10SW     N/A     91  66  43 NW2       29.95R
POST 1NE         N/A     90  62  38 S12       29.95S
RRING SPRGS 3N   N/A     90  64  42 W8        29.98F
SEYMOUR 3NW      N/A     91  67  45 SW8       29.94R
SPUR 1W          N/A     90  62  39 S12       29.94R
WEINERT 2NNE     N/A     91  69  49 S15       29.94R HX  95
WHITE RVR 6NE    N/A     90  64  42 S9        29.96S
$$

TXZ052-054-060>062-072-078-127-140-154-169-021800-
TEXAS TECH WEST TEXAS MESONET/PERMIAN BASIN/
CONCHO VALLEY/BIG COUNTRY/EDWARDS PLATEAU

CITY           SKY/WX    TMP DP  RH WIND       PRES   REMARKS
JUNCTION 1SSW    N/A     85  69  58 S8        30.00R
MERTZON 3NNE     N/A     87  69  54 S16       29.99R
SAN ANGELO 7NW   N/A     87  66  48 S15       29.98S
STRLNG CT 4WSW   N/A     87  67  51 S13       29.98S
ST LAWRNCE 5SW   N/A     86  65  49 S14       29.98S
SWEETWATR 11SW   N/A     87  68  53 S15       29.98S
WALL 1E          N/A     86  67  52 S13       29.99R
$$

TXZ055-058-074-075-080-082-021800-
TEXAS TECH WEST TEXAS MESONET/FAR WEST/SOUTHWEST MOUNTAINS/TRANS PECOS

CITY           SKY/WX    TMP DP  RH WIND       PRES   REMARKS
PRSMN GAP BBNP   N/A     91  61  37 NE5       29.98F
GUADLPE MTN NP   N/A     85  38  19 SW13      30.16S
$$